OAS8636 SKBO-SKRG

Flight info

Callsign OAS8636
Flight time 0h 26m
Altitude 24000
Route VASIL4U VASIL W36 NIRSO NIRSO3C
Aircraft A320/M-SDE3FGHIRWY/LB1

Departure

Time 2026-05-06 14:42
Airport El Dorado International Airport (SKBO)

Arrival

Time 2026-05-06 15:09
Airport Jose Maria Córdova International Airport (SKRG)
Time Latitude Longitude Altitude Speed Heading
2026-05-06 14:12 4.69990 -74.14344 8371 ft 0 kts 37°
2026-05-06 14:28 4.69978 -74.14353 8370 ft 4 kts 38°
2026-05-06 14:29 4.69960 -74.14367 8370 ft 4 kts 30°
2026-05-06 14:29 4.69938 -74.14372 8370 ft 4 kts 328°
2026-05-06 14:29 4.69922 -74.14353 8370 ft 4 kts 298°
2026-05-06 14:29 4.69916 -74.14342 8370 ft 4 kts 307°
2026-05-06 14:30 4.69932 -74.14363 8370 ft 3 kts 307°
2026-05-06 14:30 4.69934 -74.14365 8370 ft 0 kts 307°
2026-05-06 14:32 4.69935 -74.14367 8370 ft 2 kts 307°
2026-05-06 14:33 4.69958 -74.14396 8370 ft 8 kts 308°
2026-05-06 14:33 4.69992 -74.14442 8370 ft 8 kts 307°
2026-05-06 14:33 4.70024 -74.14485 8370 ft 7 kts 307°
2026-05-06 14:33 4.70055 -74.14525 8370 ft 8 kts 307°
2026-05-06 14:34 4.70060 -74.14579 8370 ft 9 kts 249°
2026-05-06 14:34 4.70014 -74.14623 8370 ft 10 kts 218°
2026-05-06 14:34 4.69956 -74.14668 8370 ft 11 kts 218°
2026-05-06 14:34 4.69890 -74.14717 8370 ft 12 kts 216°
2026-05-06 14:35 4.69817 -74.14772 8370 ft 14 kts 217°
2026-05-06 14:35 4.69765 -74.14845 8370 ft 14 kts 281°
2026-05-06 14:35 4.69821 -74.14928 8371 ft 16 kts 307°
2026-05-06 14:35 4.69890 -74.15021 8370 ft 17 kts 307°
2026-05-06 14:36 4.69939 -74.15085 8371 ft 18 kts 307°
2026-05-06 14:36 4.70011 -74.15180 8371 ft 17 kts 307°
2026-05-06 14:36 4.70079 -74.15270 8370 ft 16 kts 307°
2026-05-06 14:36 4.70150 -74.15364 8370 ft 17 kts 307°
2026-05-06 14:37 4.70224 -74.15463 8370 ft 18 kts 307°
2026-05-06 14:37 4.70299 -74.15562 8370 ft 17 kts 307°
2026-05-06 14:37 4.70370 -74.15657 8370 ft 17 kts 307°
2026-05-06 14:37 4.70439 -74.15747 8370 ft 16 kts 307°
2026-05-06 14:38 4.70504 -74.15833 8370 ft 15 kts 307°
2026-05-06 14:38 4.70569 -74.15919 8370 ft 15 kts 307°
2026-05-06 14:38 4.70635 -74.16006 8371 ft 17 kts 307°
2026-05-06 14:38 4.70710 -74.16103 8371 ft 19 kts 307°
2026-05-06 14:39 4.70793 -74.16214 8371 ft 20 kts 307°
2026-05-06 14:39 4.70878 -74.16328 8371 ft 21 kts 307°
2026-05-06 14:39 4.70967 -74.16444 8371 ft 21 kts 308°
2026-05-06 14:39 4.71058 -74.16562 8371 ft 22 kts 307°
2026-05-06 14:40 4.71150 -74.16683 8371 ft 22 kts 307°
2026-05-06 14:40 4.71201 -74.16784 8370 ft 13 kts 260°
2026-05-06 14:40 4.71138 -74.16843 8371 ft 13 kts 217°
2026-05-06 14:40 4.71064 -74.16889 8371 ft 10 kts 196°
2026-05-06 14:41 4.71049 -74.16890 8372 ft 1 kts 179°
2026-05-06 14:41 4.71039 -74.16887 8372 ft 3 kts 159°
2026-05-06 14:41 4.71003 -74.16847 8372 ft 15 kts 128°
2026-05-06 14:41 4.70797 -74.16573 8373 ft 83 kts 127°
2026-05-06 14:42 4.70329 -74.15955 8372 ft 137 kts 127°
2026-05-06 14:42 4.69657 -74.15068 8376 ft 181 kts 128°
2026-05-06 14:42 4.68898 -74.14065 9006 ft 179 kts 126°
2026-05-06 14:42 4.67940 -74.13261 9655 ft 186 kts 163°
2026-05-06 14:43 4.66635 -74.13340 9911 ft 204 kts 208°
2026-05-06 14:43 4.65548 -74.14339 10074 ft 224 kts 231°
2026-05-06 14:43 4.64631 -74.15690 10236 ft 243 kts 236°
2026-05-06 14:43 4.63742 -74.17149 10609 ft 254 kts 235°
2026-05-06 14:44 4.62800 -74.18689 11062 ft 261 kts 236°
2026-05-06 14:44 4.61831 -74.20251 11622 ft 266 kts 240°
2026-05-06 14:44 4.61259 -74.22044 12043 ft 281 kts 258°
2026-05-06 14:45 4.60487 -74.26197 12569 ft 316 kts 258°
2026-05-06 14:45 4.60172 -74.28411 13088 ft 324 kts 263°
2026-05-06 14:45 4.59994 -74.30675 13685 ft 328 kts 265°
2026-05-06 14:45 4.59883 -74.32950 14252 ft 333 kts 266°
2026-05-06 14:46 4.59795 -74.35311 14805 ft 336 kts 266°
2026-05-06 14:46 4.59706 -74.37657 15301 ft 338 kts 267°
2026-05-06 14:46 4.59733 -74.39983 15808 ft 341 kts 281°
2026-05-06 14:46 4.60638 -74.42194 16299 ft 341 kts 303°
2026-05-06 14:47 4.61976 -74.44130 16818 ft 343 kts 309°
2026-05-06 14:47 4.63469 -74.46003 17343 ft 344 kts 311°
2026-05-06 14:47 4.65015 -74.47839 17866 ft 346 kts 312°
2026-05-06 14:47 4.66585 -74.49697 18355 ft 350 kts 312°
2026-05-06 14:48 4.68170 -74.51608 18462 ft 364 kts 311°
2026-05-06 14:48 4.69801 -74.53618 18586 ft 379 kts 310°
2026-05-06 14:48 4.71470 -74.55717 18722 ft 392 kts 310°
2026-05-06 14:48 4.73172 -74.57886 19058 ft 397 kts 309°
2026-05-06 14:49 4.74974 -74.59983 19486 ft 399 kts 318°
2026-05-06 14:49 4.77103 -74.61764 19943 ft 399 kts 326°
2026-05-06 14:49 4.79344 -74.63431 20368 ft 402 kts 326°
2026-05-06 14:49 4.81600 -74.65102 20792 ft 405 kts 326°
2026-05-06 14:50 4.83877 -74.66784 21241 ft 407 kts 325°
2026-05-06 14:50 4.86153 -74.68482 21691 ft 409 kts 324°
2026-05-06 14:50 4.88421 -74.70230 22131 ft 412 kts 324°
2026-05-06 14:50 4.90682 -74.72013 22569 ft 415 kts 324°
2026-05-06 14:51 4.92859 -74.73928 22964 ft 419 kts 315°
2026-05-06 14:51 4.94693 -74.76218 23351 ft 425 kts 305°
2026-05-06 14:51 4.96124 -74.78820 23748 ft 429 kts 297°
2026-05-06 14:51 4.97424 -74.81520 24025 ft 431 kts 297°
2026-05-06 14:52 4.98738 -74.84220 24106 ft 430 kts 297°
2026-05-06 14:52 5.00034 -74.86871 24120 ft 418 kts 297°
2026-05-06 14:52 5.01305 -74.89466 24106 ft 414 kts 297°
2026-05-06 14:52 5.02571 -74.92053 24100 ft 413 kts 298°
2026-05-06 14:53 5.03836 -74.94646 24096 ft 414 kts 298°
2026-05-06 14:53 5.05099 -74.97240 24096 ft 414 kts 297°
2026-05-06 14:53 5.06360 -74.99835 24098 ft 412 kts 297°
2026-05-06 14:53 5.07616 -75.02413 24219 ft 412 kts 297°
2026-05-06 14:54 5.08872 -75.04992 24221 ft 412 kts 298°
2026-05-06 14:54 5.10132 -75.07581 24252 ft 412 kts 297°
2026-05-06 14:54 5.11387 -75.10162 24251 ft 411 kts 297°
2026-05-06 14:54 5.12639 -75.12737 24258 ft 411 kts 297°
2026-05-06 14:55 5.13891 -75.15316 24274 ft 410 kts 297°
2026-05-06 14:55 5.15183 -75.17870 24284 ft 410 kts 302°
2026-05-06 14:55 5.16826 -75.20196 24271 ft 408 kts 313°
2026-05-06 14:55 5.18708 -75.22327 24288 ft 408 kts 313°
2026-05-06 14:56 5.20596 -75.24453 24287 ft 408 kts 313°
2026-05-06 14:56 5.22476 -75.26572 24294 ft 412 kts 313°
2026-05-06 14:56 5.24370 -75.28715 23999 ft 408 kts 313°
2026-05-06 14:56 5.26245 -75.30838 23628 ft 405 kts 313°
2026-05-06 14:57 5.28108 -75.32944 23185 ft 402 kts 313°
2026-05-06 14:57 5.29961 -75.35040 22755 ft 400 kts 313°
2026-05-06 14:57 5.31856 -75.37113 22278 ft 396 kts 319°
2026-05-06 14:57 5.34021 -75.38711 21840 ft 390 kts 334°
2026-05-06 14:58 5.36510 -75.39719 21388 ft 383 kts 348°
2026-05-06 14:58 5.39126 -75.40092 20929 ft 378 kts 360°
2026-05-06 14:58 5.41743 -75.40228 20475 ft 376 kts 360°
2026-05-06 14:58 5.44349 -75.40369 20056 ft 374 kts 360°
2026-05-06 14:59 5.46936 -75.40512 19610 ft 371 kts 360°
2026-05-06 14:59 5.49507 -75.40655 19187 ft 369 kts 359°
2026-05-06 14:59 5.52073 -75.40798 18771 ft 367 kts
2026-05-06 14:59 5.54615 -75.40940 18471 ft 362 kts
2026-05-06 15:00 5.57090 -75.41079 18344 ft 351 kts
2026-05-06 15:00 5.59494 -75.41217 18141 ft 342 kts
2026-05-06 15:00 5.61851 -75.41351 17746 ft 338 kts
2026-05-06 15:00 5.64192 -75.41482 17354 ft 336 kts
2026-05-06 15:01 5.66515 -75.41611 16832 ft 332 kts
2026-05-06 15:01 5.68819 -75.41737 16179 ft 330 kts
2026-05-06 15:01 5.71108 -75.41861 15541 ft 327 kts
2026-05-06 15:01 5.73334 -75.41985 15315 ft 311 kts
2026-05-06 15:02 5.75430 -75.42104 15185 ft 294 kts
2026-05-06 15:02 5.77418 -75.42217 14972 ft 281 kts
2026-05-06 15:02 5.79349 -75.42279 14582 ft 275 kts
2026-05-06 15:02 5.81261 -75.42284 14016 ft 278 kts
2026-05-06 15:03 5.83204 -75.42241 13420 ft 279 kts
2026-05-06 15:03 5.85171 -75.42123 12688 ft 287 kts
2026-05-06 15:03 5.87183 -75.42106 12067 ft 290 kts
2026-05-06 15:03 5.89174 -75.42132 11694 ft 282 kts
2026-05-06 15:04 5.91111 -75.42150 11363 ft 272 kts
2026-05-06 15:04 5.92937 -75.42162 11057 ft 254 kts
2026-05-06 15:04 5.94680 -75.42172 10766 ft 247 kts
2026-05-06 15:04 5.96362 -75.42183 10519 ft 234 kts
2026-05-06 15:05 5.97922 -75.42194 10223 ft 219 kts
2026-05-06 15:05 5.99390 -75.42205 9984 ft 198 kts
2026-05-06 15:05 6.00704 -75.42213 9728 ft 187 kts
2026-05-06 15:05 6.02010 -75.42220 9498 ft 183 kts
2026-05-06 15:06 6.03278 -75.42227 9268 ft 182 kts
2026-05-06 15:06 6.04529 -75.42235 9049 ft 182 kts
2026-05-06 15:06 6.05787 -75.42243 8826 ft 180 kts
2026-05-06 15:06 6.07054 -75.42251 8615 ft 181 kts
2026-05-06 15:07 6.08303 -75.42259 8378 ft 178 kts
2026-05-06 15:07 6.09543 -75.42267 8152 ft 178 kts
2026-05-06 15:07 6.10785 -75.42275 7900 ft 179 kts
2026-05-06 15:07 6.12027 -75.42283 7630 ft 181 kts
2026-05-06 15:08 6.13275 -75.42292 7373 ft 179 kts
2026-05-06 15:08 6.14512 -75.42300 7108 ft 176 kts
2026-05-06 15:08 6.15701 -75.42301 6980 ft 155 kts
2026-05-06 15:08 6.16610 -75.42310 6990 ft 106 kts 359°
2026-05-06 15:09 6.16984 -75.42348 7011 ft 20 kts 322°
2026-05-06 15:09 6.17057 -75.42383 7011 ft 1 kts 333°
2026-05-06 15:09 6.17077 -75.42394 7014 ft 11 kts 333°
2026-05-06 15:09 6.17152 -75.42437 7015 ft 12 kts 326°
2026-05-06 15:10 6.17186 -75.42504 7014 ft 12 kts 269°
2026-05-06 15:10 6.17181 -75.42589 7017 ft 10 kts 252°
2026-05-06 15:10 6.17124 -75.42616 7017 ft 11 kts 181°
2026-05-06 15:10 6.17036 -75.42651 7020 ft 15 kts 215°
2026-05-06 15:11 6.16969 -75.42705 7019 ft 5 kts 253°
2026-05-06 15:11 6.16989 -75.42726 7019 ft 4 kts 316°
2026-05-06 15:11 6.17001 -75.42738 7020 ft 0 kts 317°